GW1174 Weather Reports


time (UTC)temp
F
wind
direction
speed
knots
gust
knots
rain 1hr
in
rain 24hr
in
rain mn
in
humidity
%
barometer
mb
20260508004516 46 0.0 0.9 0.00 0.06 0.00 94 1016.0
20260508003556 47 0.0 0.0 0.00 0.06 0.00 94 1016.1
20260508002516 47 0.0 0.0 0.00 0.06 0.00 93 1016.1
20260508001516 47 0.0 0.0 0.00 0.06 0.00 93 1016.1
20260508000516 47 0.0 0.0 0.00 0.06 0.00 93 1016.1
20260507235516 47 0.0 0.0 0.00 0.06 0.00 93 1016.1
20260507234516 47 0.0 0.0 0.00 0.06 0.00 93 1016.2
20260507233516 47 0.0 0.0 0.00 0.06 0.00 93 1016.2
20260507232536 47 0.0 0.0 0.00 0.06 0.00 93 1016.2
20260507231516 47 0.0 0.9 0.00 0.06 0.00 93 1016.1
20260507230516 47 0.0 0.0 0.00 0.06 0.00 93 1016.3
20260507225516 47 0.0 0.0 0.00 0.06 0.00 93 1016.2
20260507224516 47 0.0 0.0 0.00 0.06 0.00 93 1016.2
20260507223518 47 0.0 0.0 0.00 0.06 0.00 93 1016.2
20260507222516 47 0.0 0.0 0.00 0.06 0.00 93 1016.0
20260507221516 46 0.0 0.0 0.00 0.06 0.00 93 1016.1
20260507220536 46 0.0 0.0 0.01 0.07 0.00 93 1016.1
20260507215517 46 0.0 0.9 0.01 0.07 0.07 92 1016.1
20260507214517 46 0.0 0.9 0.01 0.07 0.07 92 1015.8
20260507213517 47 0 0.9 3.5 0.01 0.07 0.07 92 1015.8
20260507212517 47 45 0.9 3.5 0.01 0.07 0.07 92 1015.8
20260507211517 47 0.0 0.9 0.01 0.07 0.07 92 1015.8
20260507210517 47 0.0 0.9 0.00 0.06 0.06 92 1015.7
20260507205537 48 0.0 0.9 0.01 0.06 0.06 92 1015.7
20260507204516 48 0.0 1.7 0.02 0.06 0.06 92 1015.6
20260507203516 48 0.0 2.6 0.02 0.07 0.06 92 1015.5
20260507202516 48 0.0 1.7 0.02 0.08 0.06 92 1015.5
20260507201536 49 0.0 0.9 0.02 0.09 0.06 92 1015.3
20260507200517 49 0.0 0.0 0.02 0.12 0.06 91 1015.3
20260507195516 49 0.0 0.0 0.02 0.14 0.06 91 1015.2
20260507194517 49 0.0 0.0 0.01 0.16 0.05 91 1015.1
20260507193556 49 0.0 0.0 0.01 0.17 0.05 91 1015.0
20260507192516 49 0.0 0.0 0.01 0.18 0.05 90 1014.9
20260507191517 49 0.0 0.0 0.01 0.20 0.05 90 1014.9
20260507190517 49 0.0 1.7 0.01 0.20 0.05 90 1014.7
20260507185516 49 293 1.7 4.3 0.00 0.20 0.04 89 1014.7
20260507184516 49 293 0.9 2.6 0.00 0.20 0.04 89 1014.5
20260507183537 49 293 0.9 1.7 0.00 0.20 0.04 89 1014.5
20260507182516 50 0.0 0.0 0.00 0.20 0.04 89 1014.4
20260507181516 50 0.0 1.7 0.00 0.20 0.04 89 1014.3
20260507180516 50 293 0.9 2.6 0.00 0.20 0.04 88 1014.2
20260507175537 50 293 0.9 2.6 0.00 0.20 0.04 88 1014.3
20260507174516 50 293 0.9 2.6 0.00 0.20 0.04 88 1014.1
20260507173516 49 315 1.7 4.3 0.00 0.20 0.04 88 1014.1
20260507172516 50 293 2.6 5.2 0.00 0.20 0.04 87 1014.0
20260507171516 50 293 3.5 7.8 0.00 0.22 0.04 88 1014.0
20260507170516 50 293 2.6 6.1 0.00 0.24 0.04 88 1013.9
20260507165559 50 293 2.6 4.3 0.00 0.27 0.04 87 1013.9
20260507164516 51 315 2.6 5.2 0.00 0.29 0.04 87 1013.9
20260507163516 51 293 2.6 7.8 0.00 0.29 0.04 86 1013.8
20260507162516 51 270 4.3 7.8 0.00 0.29 0.04 86 1013.6
20260507161516 52 270 3.5 7.8 0.00 0.29 0.04 87 1013.6
20260507160556 52 270 3.5 6.1 0.00 0.29 0.04 87 1013.6
20260507155517 52 270 3.5 7.0 0.00 0.29 0.04 88 1013.5
20260507154516 52 270 2.6 5.2 0.00 0.29 0.04 89 1013.4
20260507153539 52 270 2.6 5.2 0.00 0.29 0.04 90 1013.4
20260507152516 52 270 0.9 3.5 0.00 0.29 0.04 90 1013.4
20260507151516 51 270 3.5 7.8 0.01 0.29 0.04 91 1013.4
20260507150516 51 270 3.5 9.6 0.01 0.29 0.04 91 1013.3
20260507145516 50 270 4.3 7.8 0.02 0.29 0.04 90 1013.3
20260507144516 50 270 4.3 10.4 0.02 0.29 0.04 91 1013.3
20260507143516 51 293 2.6 6.1 0.02 0.29 0.04 91 1013.2
20260507142516 51 315 1.7 4.3 0.02 0.29 0.04 90 1013.2
20260507141516 50 315 2.6 7.0 0.01 0.28 0.03 89 1013.1
20260507140516 51 293 3.5 7.8 0.01 0.28 0.03 89 1013.2
20260507135516 51 293 2.6 6.1 0.00 0.28 0.02 88 1013.1
20260507134516 52 248 3.5 7.0 0.00 0.28 0.02 87 1013.1
20260507133515 52 270 3.5 7.0 0.00 0.28 0.02 86 1013.0
20260507132556 52 270 6.1 9.6 0.00 0.28 0.02 85 1012.9
20260507131516 52 270 4.3 9.6 0.00 0.28 0.02 86 1012.9
20260507130516 51 248 3.5 7.8 0.00 0.28 0.02 85 1012.7
20260507125516 51 225 4.3 10.4 0.00 0.28 0.02 85 1012.6
20260507124515 52 270 6.1 9.6 0.00 0.28 0.02 85 1012.5
20260507123516 52 225 3.5 6.1 0.00 0.28 0.02 85 1012.4
20260507122515 52 248 2.6 6.1 0.00 0.28 0.02 86 1012.2
20260507121517 51 270 5.2 9.6 0.00 0.28 0.02 86 1012.3
20260507120517 52 225 3.5 7.0 0.00 0.28 0.02 87 1012.2
20260507115518 52 270 5.2 8.7 0.00 0.28 0.02 87 1012.1
20260507114517 52 270 5.2 8.7 0.00 0.28 0.02 87 1012.1
20260507113517 52 248 5.2 10.4 0.00 0.28 0.02 88 1012.0
20260507112518 53 203 4.3 8.7 0.00 0.28 0.02 89 1012.1
20260507111538 52 270 3.5 7.0 0.00 0.28 0.02 89 1012.0
20260507110517 52 270 3.5 7.0 0.00 0.28 0.02 90 1012.0
20260507105517 52 270 3.5 7.0 0.00 0.28 0.02 90 1012.0
20260507104518 52 270 2.6 7.0 0.00 0.28 0.02 90 1011.9
20260507103537 52 270 5.2 9.6 0.00 0.28 0.02 89 1011.8
20260507102537 53 315 4.3 7.8 0.00 0.28 0.02 90 1011.8
20260507101537 52 270 4.3 8.7 0.00 0.28 0.02 90 1011.7
20260507100517 52 225 5.2 9.6 0.00 0.28 0.02 91 1011.7
20260507095517 53 225 5.2 12.2 0.00 0.28 0.02 92 1011.6
20260507094517 52 248 2.6 7.8 0.01 0.28 0.02 93 1011.6
20260507093517 52 225 5.2 9.6 0.01 0.28 0.02 93 1011.5
20260507092517 52 225 4.3 8.7 0.01 0.28 0.02 93 1011.4
20260507091517 52 225 3.5 7.0 0.01 0.28 0.02 94 1011.3
20260507090517 51 225 5.2 9.6 0.01 0.28 0.02 94 1011.2
20260507085519 51 203 3.5 6.1 0.01 0.28 0.02 94 1011.0
20260507084517 51 203 3.5 7.8 0.00 0.27 0.02 94 1011.0
20260507083517 51 203 5.2 10.4 0.00 0.27 0.02 94 1010.7
20260507082517 51 203 4.3 7.8 0.00 0.27 0.02 94 1010.6
20260507081517 50 225 3.5 7.8 0.00 0.27 0.02 94 1010.4
20260507080517 50 225 3.5 5.2 0.01 0.27 0.02 94 1010.3
20260507075517 50 225 3.5 9.6 0.01 0.27 0.02 95 1010.3
20260507074517 50 225 3.5 6.1 0.01 0.27 0.02 95 1010.1
20260507073537 50 203 3.5 7.0 0.01 0.27 0.02 95 1010.0
20260507072517 50 203 5.2 7.8 0.01 0.27 0.02 95 1009.9
20260507071517 50 203 3.5 7.8 0.01 0.27 0.02 95 1009.8
20260507070517 49 203 4.3 7.8 0.00 0.26 0.01 95 1009.8
20260507065537 49 203 5.2 9.6 0.00 0.26 0.01 95 1009.9
20260507064517 49 203 4.3 7.8 0.00 0.26 0.01 95 1009.7
20260507063517 49 203 3.5 8.7 0.00 0.26 0.01 95 1009.6
20260507062517 49 180 5.2 8.7 0.00 0.26 0.01 95 1009.5
20260507061518 49 203 4.3 7.8 0.00 0.26 0.01 95 1009.5
20260507060517 49 203 2.6 5.2 0.00 0.26 0.01 95 1009.5
20260507055517 49 203 4.3 8.7 0.00 0.26 0.01 95 1009.4
20260507054516 49 203 2.6 5.2 0.00 0.26 0.01 95 1009.2
20260507053537 49 180 1.7 3.5 0.00 0.26 0.01 95 1009.2
20260507052536 49 225 3.5 5.2 0.00 0.26 0.01 95 1009.0
20260507051517 49 225 3.5 7.8 0.00 0.26 0.01 95 1008.8
20260507050517 49 225 3.5 7.8 0.00 0.26 0.01 95 1009.1
20260507045537 49 225 2.6 7.0 0.00 0.26 0.01 95 1008.9
20260507044537 49 180 1.7 4.3 0.00 0.26 0.01 95 1008.9
20260507043516 49 225 2.6 5.2 0.00 0.26 0.01 95 1008.9
20260507042536 49 225 2.6 5.2 0.00 0.26 0.01 95 1008.9
20260507041516 49 225 3.5 7.8 0.00 0.26 0.01 95 1008.8
20260507040516 49 248 3.5 7.0 0.00 0.26 0.01 95 1008.8
20260507035516 49 225 2.6 5.2 0.00 0.26 0.01 95 1008.8
20260507034539 49 203 3.5 7.8 0.00 0.26 0.01 95 1008.7
20260507033516 49 203 3.5 5.2 0.00 0.26 0.01 95 1008.6
20260507032516 49 225 3.5 7.0 0.00 0.26 0.01 95 1008.6
20260507031516 50 225 4.3 9.6 0.00 0.26 0.01 95 1008.5
20260507030516 50 203 3.5 7.8 0.00 0.26 0.01 95 1008.4
20260507025536 50 225 4.3 7.8 0.00 0.26 0.01 95 1008.3
20260507024516 50 225 2.6 5.2 0.00 0.26 0.01 95 1008.2
20260507023536 50 225 3.5 7.8 0.00 0.26 0.01 95 1008.2
20260507022516 50 248 2.6 4.3 0.00 0.26 0.01 95 1008.4
20260507021517 51 203 2.6 5.2 0.00 0.26 0.01 95 1008.2
20260507020516 51 248 1.7 5.2 0.00 0.26 0.01 95 1008.2
20260507015516 51 203 2.6 7.8 0.00 0.26 0.01 95 1008.3
20260507014516 51 203 3.5 6.1 0.00 0.26 0.01 95 1008.0
20260507013516 51 225 3.5 6.1 0.00 0.26 0.01 95 1008.0
20260507012536 51 203 3.5 5.2 0.00 0.26 0.01 95 1008.0
20260507011516 51 248 2.6 5.2 0.00 0.26 0.01 95 1008.0
20260507010516 51 225 4.3 9.6 0.00 0.26 0.01 95 1007.9
20260507005516 51 203 3.5 6.1 0.00 0.26 0.01 94 1007.9